sat.trackr.live / text

‹ back to catalog

STARLINK-11123 [DTC]

NORAD 59948 · 2024-107D

PAYLOAD ACTIVE UNKNOWN

§ Identity

Operator
Country
US
Launch date
2024-06-05
Launch site
AFETR
Launch vehicle
Mass (kg)
RCS (m²)

Purposes: comms

External: N2YO · Heavens-Above · Gunter

§ Orbital elements

Epoch: 2026-05-24T17:07:08.253408Z

Period
91.74 min
Inclination
53.1596°
Eccentricity
0.0000948
Mean motion
15.69726303 rev/d
Perigee alt
359.0 km
Apogee alt
360.3 km
Semi-major
6,737.8 km
B*
3.3732e-5
RAAN
236.6918°
Arg perigee
77.0108°
Mean anomaly
283.1016°
Rev number
11,414

§ Raw data

STARLINK-11123 [DTC]1 59948U 24107D   26144.71328997  .00003502  00000+0  33732-4 0  99932 59948  53.1596 236.6918 0000948  77.0108 283.1016 15.69726303114149

JSON: /api/v1/satellites/59948 · /tle

For live sub-satellite position, see the globe view (requires WebGL).

§ Visibility from observer

Set your observer location to see the next 7 days of passes ≥ 10°. The values pass through the URL so the page stays shareable.

No JS? Fill the form by hand. The geolocation button needs JavaScript.